Tracking 27420 objects as of 28-May-2023
HD Live streaming from Space Station
objects crossing your sky now

MOLNIYA 2-14

Track MOLNIYA 2-14 now!
MOLNIYA 2-14 is classified as:


NORAD ID: 8195
Int'l Code: 1975-081A
Perigee: 2,338.1 km
Apogee: 37,770.2 km
Inclination: 63.4 °
Period: 712.5 minutes
Semi major axis: 26425 km
RCS: 17.1549 m2 (large)
Launch date: September 9, 1975
Source: Commonwealth of Independent States (former USSR) (CIS)
Launch site: PLESETSK MISSILE AND SPACE COMPLEX (PKMTR)
Your satellite tracking list
Your tracking list is empty




NASA's NSSDC Master Catalog

Two Line Element Set (TLE):
1  8195U 75081A   23147.09937535  .00000348  00000-0  00000+0 0  9996
2  8195  63.4211 152.0812 6704222 291.2582  12.4377  2.02104893349888
Source of the keplerian elements: AFSPC